DW9855 Weather Reports


time (UTC)temp
C
wind
direction
speed
KPH
gust
KPH
rain 1hr
cm
rain 24hr
cm
rain mn
cm
humidity
%
barometer
mb
20260507153058 13 29 3.2 8.0 0.00 0.00 0.00 75 1014.8
20260507151550 13 29 0.0 8.0 0.00 0.00 0.00 75 1014.9
20260507150050 13 230 1.6 6.4 0.00 0.00 0.00 75 1014.9
20260507144601 13 228 0.0 6.4 0.00 0.00 0.00 73 1015.0
20260507143105 13 228 1.6 6.4 0.00 0.00 0.00 70 1015.1
20260507141559 13 228 1.6 6.4 0.00 0.00 0.00 67 1015.2
20260507140110 14 228 0.0 0.0 0.00 0.00 0.00 65 1015.2
20260507134541 14 228 0.0 1.6 0.00 0.00 0.00 64 1015.2
20260507133041 15 228 0.0 4.8 0.00 0.00 0.00 60 1015.2
20260507131545 15 228 1.6 12.9 0.00 0.00 0.00 59 1015.2
20260507130039 15 232 1.6 6.4 0.00 0.00 0.00 59 1015.3
20260507124536 14 232 3.2 11.3 0.00 0.00 0.00 60 1015.3
20260507123035 14 234 1.6 14.5 0.00 0.00 0.00 59 1015.3
20260507121535 14 240 0.0 3.2 0.00 0.00 0.00 59 1015.3
20260507120034 15 242 0.0 4.8 0.00 0.00 0.00 58 1015.4
20260507114553 15 243 0.0 8.0 0.00 0.00 0.00 58 1015.5
20260507113051 15 243 0.0 8.0 0.00 0.00 0.00 58 1015.5
20260507111550 15 242 0.0 3.2 0.00 0.00 0.00 60 1015.4
20260507110052 15 246 0.0 1.6 0.00 0.00 0.00 63 1015.6
20260507104555 15 246 0.0 4.8 0.00 0.00 0.00 65 1015.6
20260507103050 15 244 0.0 4.8 0.00 0.00 0.00 67 1015.7
20260507101601 14 243 1.6 11.3 0.00 0.00 0.00 68 1015.7
20260507100044 13 31 0.0 4.8 0.00 0.00 0.00 70 1015.8
20260507094556 13 31 0.0 4.8 0.00 0.00 0.00 71 1015.8
20260507093042 12 31 0.0 6.4 0.00 0.00 0.00 71 1015.8
20260507091554 12 31 0.0 3.2 0.00 0.00 0.00 72 1015.8
20260507090043 12 30 0.0 3.2 0.00 0.00 0.00 74 1016.0
20260507084501 11 30 0.0 4.8 0.00 0.00 0.00 75 1016.0
20260507083105 11 30 0.0 1.6 0.00 0.00 0.00 76 1016.2
20260507081558 10 30 0.0 3.2 0.00 0.00 0.00 78 1016.1
20260507080051 10 30 0.0 3.2 0.00 0.00 0.00 79 1016.1
20260507074555 9 30 0.0 4.8 0.00 0.00 0.00 80 1016.0
20260507073101 8 30 0.0 1.6 0.00 0.00 0.00 81 1016.1
20260507071547 8 30 0.0 3.2 0.00 0.00 0.00 82 1016.0
20260507070114 8 30 0.0 1.6 0.00 0.00 0.00 82 1015.8
20260507064547 8 30 0.0 3.2 0.00 0.00 0.00 83 1015.7
20260507063040 8 30 0.0 3.2 0.00 0.00 0.00 83 1015.8
20260507061539 8 30 0.0 1.6 0.00 0.00 0.00 83 1015.8
20260507060037 7 30 0.0 1.6 0.00 0.00 0.00 83 1015.7
20260507054604 7 30 0.0 3.2 0.00 0.00 0.00 83 1015.5
20260507053053 7 30 0.0 1.6 0.00 0.00 0.00 83 1015.5
20260507051548 7 30 0.0 3.2 0.00 0.00 0.00 83 1015.5
20260507050046 7 30 0.0 3.2 0.00 0.00 0.00 83 1015.5
20260507044546 7 30 0.0 1.6 0.00 0.00 0.00 83 1015.4
20260507043041 7 30 0.0 3.2 0.00 0.00 0.00 82 1015.3
20260507041538 7 30 0.0 9.7 0.00 0.00 0.00 82 1015.3
20260507040036 7 30 0.0 3.2 0.00 0.00 0.00 81 1015.4
20260507034545 7 30 0.0 3.2 0.00 0.00 0.00 81 1015.4
20260507033037 8 30 0.0 8.0 0.00 0.00 0.00 80 1015.3
20260507031534 8 30 0.0 3.2 0.00 0.00 0.00 80 1015.4
20260507030038 8 30 0.0 8.0 0.00 0.00 0.00 79 1015.4
20260507024549 8 30 0.0 4.8 0.00 0.00 0.00 79 1015.3
20260507023047 8 30 0.0 1.6 0.00 0.00 0.00 79 1015.3
20260507021557 8 30 0.0 4.8 0.00 0.00 0.00 78 1015.3
20260507020052 8 30 1.6 4.8 0.00 0.00 0.00 78 1015.3
20260507014557 8 30 0.0 3.2 0.00 0.00 0.00 78 1015.2
20260507013040 8 30 0.0 4.8 0.00 0.00 0.00 78 1015.3
20260507011540 8 30 0.0 3.2 0.00 0.00 0.00 77 1015.3
20260507010039 8 30 0.0 3.2 0.00 0.00 0.00 77 1015.3
20260507004541 8 30 1.6 4.8 0.00 0.00 0.00 76 1015.2
20260507003036 8 31 0.0 3.2 0.00 0.00 0.00 75 1015.3
20260507001535 8 31 0.0 4.8 0.00 0.00 0.00 74 1015.3
20260507000033 9 31 0.0 3.2 0.00 0.00 0.00 73 1015.5
20260506234555 9 31 0.0 3.2 0.00 0.00 0.00 73 1015.5
20260506233056 9 31 0.0 4.8 0.00 0.00 0.00 72 1015.5
20260506231549 9 31 1.6 12.9 0.00 0.00 0.00 71 1015.4
20260506230047 9 30 1.6 4.8 0.00 0.00 0.00 70 1015.4
20260506224545 9 30 1.6 12.9 0.00 0.00 0.00 68 1015.4
20260506223043 10 30 1.6 8.0 0.00 0.00 0.00 67 1015.3
20260506221544 10 30 0.0 12.9 0.00 0.00 0.00 65 1015.2
20260506220042 10 31 0.0 9.7 0.00 0.00 0.00 63 1015.1
20260506214538 10 30 0.0 3.2 0.00 0.00 0.00 62 1015.1
20260506213036 11 30 1.6 8.0 0.00 0.00 0.00 61 1015.0
20260506211535 11 30 0.0 4.8 0.00 0.00 0.00 59 1014.9
20260506210034 11 30 0.0 1.6 0.00 0.00 0.00 58 1014.8
20260506204546 11 30 0.0 4.8 0.00 0.00 0.00 57 1014.7
20260506203051 11 30 1.6 8.0 0.00 0.00 0.00 56 1014.7
20260506201606 12 30 1.6 8.0 0.00 0.00 0.00 54 1014.5
20260506200045 12 30 3.2 8.0 0.00 0.00 0.00 54 1014.4
20260506194548 12 30 1.6 8.0 0.00 0.00 0.00 52 1014.1
20260506193044 12 30 0.0 12.9 0.00 0.00 0.00 52 1014.2
20260506191542 12 30 1.6 9.7 0.00 0.00 0.00 52 1014.2
20260506190037 12 30 4.8 16.1 0.00 0.00 0.00 51 1014.1
20260506184554 13 30 8.0 19.3 0.00 0.00 0.00 51 1014.0
20260506183050 13 34 11.3 19.3 0.00 0.00 0.00 50 1013.9
20260506181551 13 38 6.4 17.7 0.00 0.00 0.00 50 1013.9
20260506180049 13 29 11.3 17.7 0.00 0.00 0.00 48 1013.7
20260506174545 15 30 3.2 20.9 0.00 0.00 0.00 48 1013.6
20260506173100 15 32 3.2 24.1 0.00 0.00 0.00 46 1013.5
20260506171553 16 25 1.6 17.7 0.00 0.00 0.00 44 1013.4
20260506170042 16 35 3.2 14.5 0.00 0.00 0.00 44 1013.4
20260506164540 15 34 6.4 19.3 0.00 0.00 0.00 45 1013.5
20260506163052 14 32 0.0 14.5 0.00 0.00 0.00 49 1013.4
20260506161542 15 30 8.0 20.9 0.00 0.00 0.00 47 1013.5
20260506160035 14 34 1.6 16.1 0.00 0.00 0.00 51 1013.6
20260506154555 13 40 6.4 20.9 0.00 0.00 0.00 50 1013.6